Wind_Speed
29 29 28 28 29 29 29 29 30 30 31 32 32 32 30 31 32 32 34 34 34 34 34 34 34 34 34 34 34 34 33 33 34 33 33 33 33 33 32 33 33 34 35 36
30 30 29 29 30 30 30 30 30 31 32 32 32 31 30 30 31 32 33 34 35 35 34 34 34 34 35 35 35 35 35 35 35 35 35 34 34 34 34 34 34 35 36 36
31 30 29 30 30 30 30 30 30 32 33 34 35 33 31 31 31 31 32 32 34 35 35 35 35 35 35 36 36 35 35 36 36 37 37 36 36 36 36 36 36 37 36 36
32 31 30 30 31 31 32 31 31 33 34 35 35 36 31 31 31 31 32 31 32 34 35 35 35 36 36 36 36 37 36 37 37 38 39 38 38 38 38 38 38 38 38 38
33 32 32 31 31 32 33 33 33 33 35 36 35 37 33 31 32 32 32 31 31 32 33 34 35 36 36 36 36 37 37 37 37 39 40 40 39 39 39 39 40 40 41 41
34 34 34 33 32 32 33 34 35 36 36 37 35 37 35 32 32 32 33 32 32 33 33 34 35 36 36 37 37 37 38 38 38 39 40 41 41 40 40 41 41 41 42 42
34 35 35 34 34 33 34 34 36 37 37 37 36 38 35 33 33 33 33 34 34 34 34 34 35 37 37 37 37 37 38 38 38 39 40 41 41 41 41 41 42 42 43 43
35 35 35 35 36 36 35 35 36 38 38 38 37 38 35 34 33 34 34 35 35 35 35 36 36 37 37 38 38 38 39 39 38 39 39 41 42 42 42 42 42 43 42 43
36 36 35 35 36 36 36 37 36 38 40 41 41 39 36 35 34 34 34 35 35 36 36 35 36 36 37 38 39 39 39 40 40 40 40 42 42 42 43 43 43 43 44 44
36 37 35 36 37 37 36 36 36 38 40 41 42 40 38 36 35 35 35 35 35 36 37 36 36 37 37 38 39 39 40 41 41 40 41 42 42 43 43 43 44 44 44 44
36 37 36 36 37 37 36 36 37 39 40 42 43 41 39 38 38 37 36 36 36 37 38 38 37 38 38 39 39 40 41 41 42 41 41 42 43 43 44 44 44 45 45 46
37 38 38 37 37 38 38 38 38 40 42 43 45 43 40 39 39 38 37 37 37 38 39 39 39 39 39 40 40 41 41 41 42 43 43 43 44 44 45 45 45 45 46 46
38 38 38 38 39 39 40 39 40 41 43 43 44 44 40 40 39 38 38 37 37 38 39 40 40 40 41 41 42 42 42 42 43 44 44 45 46 46 46 47 46 47 47 47
38 39 39 39 38 39 40 40 40 42 43 44 44 42 40 40 39 38 38 38 39 38 39 40 41 42 43 43 44 44 44 45 45 46 46 46 46 47 48 48 48 49 49 49
38 39 39 39 39 39 39 39 40 42 43 44 42 41 40 40 39 39 38 38 38 39 40 41 41 42 44 44 45 45 45 46 46 46 47 47 47 47 48 49 49 50 51 51
38 40 41 41 41 41 41 39 40 42 43 43 43 40 39 40 40 39 39 40 40 40 40 40 41 42 44 44 45 45 46 46 46 46 47 48 48 49 49 50 50 51 52 52
38 40 41 41 40 42 41 39 40 42 42 42 43 40 40 41 41 40 41 41 42 42 41 41 42 43 44 44 45 46 47 47 47 47 47 48 49 49 50 51 51 52 53 53
38 39 41 42 41 43 41 39 39 40 40 41 41 41 42 41 40 41 41 42 42 42 42 42 43 43 43 44 45 47 47 48 48 49 49 49 49 50 51 52 52 53 53 54
38 39 41 43 44 44 40 39 39 40 40 39 39 40 40 40 41 40 41 41 42 42 42 43 43 43 43 45 45 46 47 48 48 49 49 50 50 50 51 52 52 53 53 54
38 40 41 43 44 44 40 39 40 41 40 38 39 38 38 39 40 38 39 40 41 41 42 43 43 43 43 44 44 44 45 46 47 48 48 49 50 50 51 51 52 52 52 52
39 41 42 43 44 43 40 40 40 42 40 38 39 39 39 39 39 38 38 39 40 41 42 42 43 43 43 44 44 44 44 45 46 47 48 48 49 49 49 49 50 50 50 50
39 40 41 42 43 41 39 40 41 41 40 40 40 40 40 40 40 40 40 41 42 42 42 42 42 42 43 43 43 44 44 45 46 46 46 47 47 48 48 48 48 48 48 48
39 40 41 42 41 39 40 40 40 40 41 41 42 42 41 41 41 42 41 42 42 43 43 42 42 42 42 42 43 43 43 43 44 44 45 46 47 47 47 47 47 46 46 46
40 40 41 41 40 40 40 40 40 40 40 40 41 41 40 40 41 42 42 42 42 42 42 42 43 42 42 41 41 42 42 42 42 43 43 44 44 44 44 45 45 45 45 45
41 41 41 41 40 40 39 39 39 39 39 40 40 40 40 41 41 42 42 42 43 42 43 43 43 42 41 41 41 42 42 42 42 42 42 42 42 42 42 42 43 43 43 43
42 42 42 41 39 40 38 37 37 38 38 39 39 40 41 41 42 42 42 42 42 42 42 42 42 42 41 41 41 41 42 42 42 42 42 42 42 42 42 42 41 41 41 41
Wind_Direction
274 273 273 274 273 274 273 273 270 270 271 270 269 268 266 267 266 264 261 260 259 260 260 261 261 259 257 256 256 256 257 258 259 260 260 259 258 258 257 256 255 255 255 255
275 274 274 274 273 274 273 273 271 270 272 272 270 268 267 268 268 266 263 262 260 260 261 262 262 260 258 257 257 258 259 261 261 261 261 259 258 258 258 257 255 254 254 254
274 275 274 273 272 272 273 274 274 273 272 272 272 269 268 267 267 266 264 263 262 262 262 262 262 261 259 258 258 257 259 261 262 262 261 260 259 258 259 258 256 255 255 254
272 272 272 272 272 272 272 273 275 275 275 274 274 273 268 267 267 266 265 264 265 264 263 263 263 262 261 259 259 259 260 262 263 263 262 261 260 259 259 259 257 257 256 257
274 272 271 271 272 272 272 272 273 275 276 275 274 274 270 267 267 266 264 265 265 265 265 264 263 262 261 260 260 261 262 263 264 264 263 261 260 259 259 259 258 257 257 257
273 272 271 271 271 272 273 273 273 274 275 275 275 275 273 269 268 266 264 264 265 266 266 265 264 263 262 261 261 263 264 264 264 264 262 261 260 260 260 259 258 257 257 258
274 273 272 270 269 270 271 272 274 275 274 275 275 274 274 271 269 267 266 266 265 266 266 266 265 264 264 263 263 264 264 265 265 265 263 261 260 260 260 259 259 258 257 257
273 273 273 270 269 270 270 271 273 275 276 275 274 273 273 272 270 269 267 266 266 266 267 267 266 266 265 263 262 263 264 265 266 266 265 262 261 261 261 261 260 259 259 259
273 273 273 271 269 270 270 270 273 274 275 276 275 274 272 273 272 270 268 266 267 267 267 268 268 267 266 265 265 264 264 265 266 266 265 264 262 262 262 262 262 261 260 260
272 272 273 272 269 268 269 270 272 273 274 276 276 274 274 274 273 271 269 268 268 267 267 267 267 267 267 267 266 266 265 266 267 267 266 265 263 263 263 263 262 262 261 260
272 271 271 271 270 270 269 268 270 271 272 274 276 275 276 275 275 273 271 270 269 268 267 267 267 267 267 267 266 267 266 267 267 267 266 266 265 265 264 263 262 263 262 261
273 273 272 271 270 270 269 269 269 270 272 274 275 277 277 277 275 273 272 271 269 267 267 267 267 267 267 266 267 267 267 268 268 268 268 268 266 265 265 265 264 264 263 263
274 273 274 274 273 272 271 271 271 270 270 272 274 277 276 276 275 274 273 271 269 268 267 267 267 267 267 267 267 268 268 268 268 269 269 268 267 266 266 265 265 265 264 264
273 272 272 274 276 275 273 273 272 271 270 272 273 276 274 273 273 273 272 270 269 268 267 268 267 268 268 268 268 268 269 269 270 269 269 269 268 267 266 265 265 265 265 265
273 272 272 274 274 274 273 272 271 271 272 273 273 273 272 271 272 271 270 269 268 268 268 269 268 267 267 268 268 269 269 269 270 270 270 269 268 267 266 266 266 266 266 265
271 272 273 273 274 275 274 273 273 272 272 273 273 272 272 272 272 271 270 269 268 268 270 270 270 269 268 268 268 269 270 270 271 271 271 270 269 268 268 268 268 268 267 266
272 273 275 276 275 275 274 276 274 274 274 273 273 273 272 271 271 270 270 270 270 269 270 271 271 270 269 269 269 270 270 271 271 272 272 271 271 270 270 269 269 268 268 267
274 275 276 277 277 276 277 276 276 276 275 275 274 274 272 272 271 271 271 270 270 270 270 270 271 271 271 271 271 271 271 271 272 272 272 272 271 271 270 270 270 269 268 267
273 276 277 277 278 278 277 278 278 278 278 275 275 275 274 273 272 272 272 271 270 269 269 271 272 272 271 272 272 272 272 272 272 273 273 273 272 271 270 270 270 270 269 268
274 275 276 278 278 279 280 279 279 279 278 276 277 276 275 274 273 273 272 271 271 270 271 272 272 272 272 273 272 272 273 274 274 274 273 272 272 271 270 270 270 270 270 269
274 275 276 277 278 281 282 280 279 279 281 279 277 277 276 276 276 275 273 272 272 273 273 273 273 274 274 274 273 274 274 275 275 275 274 273 272 272 271 270 270 270 270 269
276 276 276 277 278 282 283 281 280 280 279 279 278 276 276 276 276 275 274 273 273 273 273 274 274 275 276 276 275 275 276 276 276 276 275 274 274 274 273 272 271 270 270 270
276 276 277 278 280 281 280 280 280 279 278 278 277 276 276 276 276 275 275 275 275 274 274 274 275 276 276 276 276 276 277 277 277 277 276 275 275 275 274 274 272 271 271 270
275 276 276 278 279 279 279 279 280 280 278 278 277 275 276 276 276 276 275 275 275 275 275 275 276 276 276 277 277 277 277 278 278 278 277 277 277 276 275 274 273 272 270 270
274 275 276 276 277 277 278 279 279 278 277 276 276 275 275 275 275 275 275 276 276 276 275 276 277 277 277 277 278 278 278 279 279 279 278 277 277 276 276 275 274 273 271 271
272 274 275 276 277 277 277 277 276 276 277 277 276 275 275 275 275 275 276 276 276 276 276 276 277 277 277 277 278 279 280 280 280 279 279 278 277 277 276 275 274 273 272 271
Height
5684 5684 5683 5683 5682 5681 5681 5681 5681 5682 5681 5681 5682 5684 5686 5685 5685 5686 5686 5687 5689 5690 5690 5691 5692 5693 5694 5695 5696 5697 5698 5699 5700 5700 5701 5702 5703 5704 5705 5706 5707 5709 5710 5712
5677 5677 5677 5675 5674 5674 5673 5673 5674 5674 5673 5673 5674 5676 5678 5677 5677 5678 5678 5679 5681 5681 5682 5683 5684 5685 5686 5687 5688 5689 5690 5690 5691 5692 5693 5694 5694 5696 5697 5698 5699 5700 5702 5703
5669 5670 5669 5667 5667 5667 5666 5667 5667 5666 5665 5665 5665 5667 5669 5670 5669 5670 5670 5671 5672 5673 5674 5675 5675 5676 5677 5678 5679 5680 5681 5682 5682 5683 5684 5685 5686 5687 5688 5689 5690 5692 5693 5695
5661 5662 5661 5660 5660 5659 5659 5660 5659 5658 5657 5657 5657 5656 5662 5662 5662 5662 5663 5663 5664 5665 5665 5666 5667 5668 5669 5670 5671 5671 5672 5673 5673 5674 5675 5676 5677 5678 5679 5680 5681 5683 5684 5686
5653 5653 5653 5652 5653 5652 5652 5652 5651 5650 5649 5648 5648 5647 5652 5653 5654 5655 5655 5655 5656 5656 5657 5658 5658 5659 5660 5661 5661 5662 5663 5663 5664 5664 5665 5666 5667 5668 5670 5671 5672 5674 5675 5676
5645 5645 5644 5645 5645 5644 5643 5643 5643 5641 5640 5640 5641 5639 5641 5645 5646 5646 5647 5647 5648 5648 5649 5649 5650 5650 5651 5651 5652 5653 5653 5654 5654 5655 5655 5656 5657 5658 5659 5661 5662 5664 5665 5666
5636 5636 5635 5636 5636 5636 5635 5635 5633 5631 5629 5631 5632 5630 5633 5636 5637 5638 5638 5639 5639 5639 5639 5640 5640 5641 5641 5642 5643 5643 5644 5644 5645 5645 5645 5646 5647 5648 5649 5650 5652 5653 5654 5656
5626 5627 5627 5626 5626 5626 5626 5625 5624 5622 5621 5622 5622 5622 5627 5628 5628 5628 5629 5629 5629 5629 5630 5630 5631 5631 5632 5632 5633 5634 5634 5635 5635 5635 5635 5636 5636 5638 5639 5640 5641 5642 5643 5645
5616 5617 5618 5617 5617 5617 5616 5616 5616 5614 5611 5611 5611 5614 5617 5618 5618 5618 5619 5619 5620 5620 5620 5621 5621 5621 5622 5623 5623 5624 5625 5625 5625 5625 5625 5625 5626 5627 5628 5629 5630 5631 5632 5633
5606 5607 5608 5607 5607 5607 5607 5607 5606 5604 5601 5600 5601 5604 5607 5608 5608 5608 5609 5609 5610 5610 5610 5610 5610 5611 5612 5613 5613 5614 5614 5614 5614 5614 5615 5615 5615 5616 5617 5617 5618 5619 5620 5622
5597 5597 5597 5597 5597 5597 5597 5597 5596 5594 5592 5591 5590 5596 5597 5598 5597 5598 5599 5599 5599 5600 5600 5600 5600 5601 5602 5602 5603 5603 5603 5603 5604 5604 5604 5604 5604 5605 5605 5606 5607 5608 5609 5610
5587 5586 5586 5588 5588 5587 5587 5587 5586 5585 5584 5582 5581 5587 5588 5588 5587 5587 5588 5589 5589 5589 5589 5589 5590 5591 5591 5592 5592 5592 5592 5592 5592 5592 5592 5592 5593 5593 5594 5594 5595 5596 5597 5597
5577 5576 5576 5577 5579 5578 5577 5577 5576 5575 5573 5572 5571 5577 5578 5577 5577 5578 5578 5578 5578 5578 5579 5579 5580 5580 5580 5580 5581 5581 5581 5581 5581 5580 5580 5580 5581 5581 5582 5582 5583 5583 5584 5585
5567 5567 5567 5567 5567 5566 5566 5567 5566 5564 5562 5561 5563 5565 5568 5567 5567 5568 5568 5568 5568 5568 5568 5568 5569 5569 5569 5569 5569 5569 5569 5569 5569 5568 5568 5568 5568 5569 5569 5569 5570 5570 5571 5571
5557 5557 5557 5557 5557 5555 5555 5556 5555 5554 5553 5552 5554 5555 5557 5556 5556 5556 5556 5556 5557 5557 5557 5558 5557 5557 5557 5557 5557 5557 5557 5557 5556 5556 5556 5556 5555 5555 5555 5556 5556 5556 5557 5557
5546 5545 5546 5546 5546 5544 5544 5546 5545 5543 5543 5542 5542 5544 5546 5545 5545 5545 5546 5546 5546 5546 5546 5546 5546 5546 5546 5545 5545 5545 5544 5544 5544 5543 5543 5542 5542 5542 5541 5541 5541 5542 5542 5542
5535 5535 5534 5534 5534 5532 5532 5537 5535 5534 5533 5532 5531 5534 5534 5534 5534 5534 5534 5534 5534 5535 5535 5535 5534 5534 5534 5533 5533 5532 5532 5531 5530 5530 5529 5528 5527 5527 5527 5526 5526 5526 5527 5527
5526 5525 5523 5522 5522 5519 5527 5526 5524 5522 5522 5522 5521 5521 5522 5522 5522 5522 5522 5522 5522 5522 5523 5522 5522 5522 5521 5521 5520 5519 5518 5517 5517 5516 5515 5514 5513 5512 5512 5511 5511 5511 5511 5511
5517 5515 5513 5511 5509 5508 5515 5515 5513 5511 5511 5512 5510 5510 5510 5510 5510 5511 5511 5510 5510 5510 5511 5510 5510 5509 5509 5508 5507 5506 5505 5504 5503 5502 5500 5499 5498 5497 5496 5496 5495 5495 5495 5495
5507 5505 5504 5501 5498 5498 5505 5504 5501 5499 5499 5502 5500 5499 5499 5498 5498 5501 5500 5499 5498 5498 5498 5498 5497 5496 5496 5495 5494 5493 5492 5490 5489 5488 5486 5485 5483 5482 5481 5481 5480 5479 5479 5479
5496 5494 5492 5491 5487 5488 5493 5491 5489 5489 5491 5491 5489 5488 5487 5487 5488 5489 5487 5487 5486 5486 5485 5485 5484 5484 5483 5482 5481 5480 5478 5477 5475 5474 5472 5470 5469 5467 5466 5465 5465 5464 5464 5464
5484 5483 5482 5480 5478 5482 5482 5479 5479 5478 5478 5477 5477 5476 5476 5476 5476 5475 5475 5474 5474 5474 5473 5472 5471 5471 5470 5469 5468 5466 5465 5464 5462 5460 5458 5456 5455 5453 5452 5451 5450 5449 5449 5449
5473 5474 5472 5471 5472 5471 5469 5468 5467 5466 5466 5465 5465 5465 5464 5464 5464 5463 5463 5462 5462 5461 5461 5460 5459 5458 5457 5456 5455 5453 5452 5450 5448 5446 5444 5443 5441 5439 5438 5436 5435 5435 5434 5434
5462 5462 5460 5459 5460 5459 5458 5456 5455 5455 5454 5453 5452 5452 5452 5451 5451 5451 5451 5450 5449 5449 5448 5447 5446 5446 5444 5443 5441 5440 5439 5437 5435 5433 5431 5429 5427 5426 5424 5423 5422 5421 5421 5420
5451 5449 5447 5447 5448 5447 5446 5445 5444 5443 5442 5441 5440 5440 5440 5439 5439 5439 5438 5438 5437 5436 5435 5434 5434 5433 5432 5430 5429 5427 5425 5424 5422 5420 5418 5416 5414 5413 5412 5410 5409 5408 5408 5407
5440 5438 5436 5436 5437 5435 5434 5433 5431 5430 5429 5428 5428 5428 5427 5427 5426 5426 5425 5425 5424 5423 5422 5422 5421 5420 5419 5417 5416 5414 5412 5411 5409 5407 5405 5403 5402 5400 5399 5398 5397 5395 5395 5394